Погода в Колесникове

Россия / Рязанская область     54°59′31″N   40°49′41″E
темп.,
°C
ветер,
м/с
пор.,
м/с
влажн.,
%
обл.,
%
осадки,
мм/ч
давл.,
гПа
погр.,
м
23 апреля, пт
пт2300:00+6ю311885 0.0 1019229
03:00+5ююв310895 0.0 1019198
06:00+6ю3108732 0.0 1019241
09:00+12ю496478 0.0 1019572
12:00+17ю5840100 0.0 10172658
15:00+16ю584392 0.0 10162403
18:00+14ю495657 0.1 1015728
21:00+10ююв413765 0.1 1015363
24 апреля, сб
сб2400:00+8ююв311848 0.1 1013291
03:00+7юв4119145 0.1 1011294
06:00+7юв4129298 0.3 1009386
09:00+11ю5977100 0.6 1007854
12:00+8зюз5886100 1.1 1007652
15:00+3зсз4996100 1.6 1007556
18:00+4зсз3894100 3.1 1006602
21:00+4з3894100 3.3 1006716
25 апреля, вс
вс2500:00+4з4993100 0.3 1005728
03:00+3з51190100 0.4 1006893
06:00+2з5138150 0.0 1008791
09:00+5з612645 0.0 10091318
12:00+8з61142100 0.0 10102601
15:00+8зюз7114798 0.3 10102270
18:00+6зюз614600 0.6 10111853
21:00+3юз4117775 0.6 1013511
26 апреля, пн
пн2600:00+2юз268499 0.0 1012146
03:00+2юз2595100 0.4 1012228
06:00+1юз38935 0.0 1013339
09:00+6зюз46575 0.0 10141103
12:00+8юз4543100 0.1 10132249
15:00+8ююз3444100 0.1 10121752
18:00+7юз355479 0.2 1011519
21:00+3юз117398 0.2 101110
27 апреля, вт
вт2700:00+2зюз117796 0.0 101011
03:00+1юз1188100 0.8 100911
06:00+2зюз2385100 0.1 1009101
09:00+6з2362100 0.1 1009687
12:00+9з3449100 1.1 10081914
15:00+7зсз575865 3.0 10091487
18:00+8з47544 0.1 10091217
21:00+3зюз397892 0.2 1011194